Location: Newark
(48.6461°N, 4.3644°W)
Time: 14:34:15
(UTC+00:00)

STARLINK 1030 - Pass Details

Date: 11 December 2019
Orbit: 451 x 452 km, 53.0° (Epoch: 20 January)

Event Time Altitude Azimuth Distance (km) Brightness Sun altitude
Exits shadow 05:15:52 13° 157° (SSE) 1,330 5.9 -25.9°
Drops below altitude 10° 05:16:19 10° 153° (SSE) 1,497 6.2 -25.8°
Sets 05:18:32 0° 143° (SE) 2,359 7.5 -25.4°
